Weather in Amfissa

Greece     38°31′42″N   22°22′49″E
temp.,
°C
wind,
m/s
gust,
m/s
humid.,
%
clouds,
%
prec.,
mm/h
press.,
hPa
HPBL,
m
26 october, tue
tue2600:00+7ne3480100 0.1 1026429
03:00+8ne3480100 0.1 1025465
06:00+7ne448372 0.1 1025308
09:00+7ne357673 0.1 1025703
12:00+9ne346642 0.0 1024853
15:00+10ne336253 0.0 1022831
18:00+9ne346757 0.0 1022630
21:00+6nne33826 0.0 1024148
27 october, wed
wed2700:00+6nne33851 0.0 1024101
03:00+5nne33862 0.0 102465
06:00+5nne33871 0.0 102459
09:00+6nne33830 0.0 1024151
12:00+11ne33620 0.0 1024711
15:00+13ne235421 0.0 1022848
18:00+11ne2362100 0.0 1023377
21:00+8nne33807 0.0 1025104
28 october, thu
thu2800:00+7nne338515 0.0 102586
03:00+6nne338711 0.0 102581
06:00+6nne43871 0.0 102576
09:00+7nne348311 0.0 1026136
12:00+12ne346210 0.0 1024797
15:00+13ne33581 0.0 1023855
18:00+11ne34699 0.0 1023577
21:00+8nne33861 0.0 1025131
29 october, fri
fri2900:00+7nne33881 0.0 102585
03:00+6nne33870 0.0 102570
06:00+6nne33880 0.0 102471
09:00+7nne33840 0.0 1024141
12:00+12ne33590 0.0 1024708
15:00+13ne33560 0.0 1022856
18:00+11nne23650 0.0 1023372
21:00+8nne33810 0.0 102478
30 october, sat
sat3000:00+7nne33843 0.0 102574
03:00+6nne33863 0.0 102568
06:00+6nne33865 0.0 102562
09:00+7nne33805 0.0 1025110
12:00+13ne33475 0.0 1024671
15:00+15ne23410 0.0 1023860
18:00+12nne22560 0.0 1024121
21:00+9nne33730 0.0 102667